Location: Street
(51.1247°N, 2.7429°W)
Time: 02:04:28
(UTC+00:00)

deb Explorer IX - Pass Details

Date: 09 December 2020
Orbit: 536 x 1104 km, 38.8° (Epoch: 20 January)

Event Time Altitude Azimuth Distance (km) Brightness Sun altitude
Rises 12:32:13 0° 221° (SW) 3,909 ? 15.7°
Reaches altitude 10° 12:35:39 10° 207° (SSW) 2,953 ? 15.6°
Maximum altitude 12:40:57 22° 161° (SSE) 2,158 ? 15.5°
Drops below altitude 10° 12:46:02 10° 113° (ESE) 2,828 ? 15.4°
Sets 12:49:14 0° 99° (E) 3,703 ? 15.3°
